Weather History for Kiruna, Sweden

Change the Weather History Date:

Monday, January 21, 2013

  Actual Average Record
Temperature  
Mean Temperature 21 °F -  
Max Temperature 32 °F - - ()
Min Temperature 10 °F - - ()
Degree Days  
Heating Degree Days 44    
Moisture  
Dew Point 18 °F    
Average Humidity 71    
Maximum Humidity 80    
Minimum Humidity 62    
Precipitation  
Precipitation 0.00 in - - ()
Sea Level Pressure  
Sea Level Pressure 29.73 in    
Wind  
Wind Speed 11 mph ()    
Max Wind Speed 23 mph    
Max Gust Speed 34 mph    
Visibility 6.2 miles    
Events Snow    
T = Trace of Precipitation, MM = Missing Value Source: Averaged Metar Reports

Daily Weather History Graph

Daily Weather History Graph

Search for Another Location

Airport:

Trip Planner

Search our weather history database for the weather conditions in past years. The results will help you decide how hot, cold, wet, or windy it might be!

Date:

Astronomy

Jan. 21, 2013 Rise Set
Actual Time 9:40 AM CET 2:00 PM CET
Civil Twilight 8:14 AM CET 3:26 PM CET
Nautical Twilight 6:59 AM CET 4:41 PM CET
Astronomical Twilight 5:53 AM CET 5:47 PM CET
Moon 9:21 AM CET (1/21) 4:53 AM CET (1/21)
Length of Visible Light 7h 11m
Length of Day
4h 20m
Waxing Gibbous, 73% of the Moon is Illuminated
Jan 21
Waxing Gibbous
Jan 27
Full
Feb 3
Last Quarter
Feb 10
New
Feb 17
First Quarter

Hourly Weather History & Observations

Time (CET) Temp. Windchill Dew Point Humidity Pressure Visibility Wind Dir Wind Speed Gust Speed Precip Events Conditions
12:20 AM 10.4 °F -2.4 °F 1.4 °F 67% 29.92 in 6.2 mi SW 9.2 mph - N/A   Mostly Cloudy
12:50 AM 10.4 °F -1.5 °F 1.4 °F 67% 29.92 in 6.2 mi SSW 8.1 mph - N/A   Overcast
1:20 AM 12.2 °F -0.2 °F 3.2 °F 67% 29.92 in 6.2 mi SW 9.2 mph - N/A   Overcast
1:50 AM 12.2 °F -0.2 °F 1.4 °F 62% 29.89 in 6.2 mi SSW 9.2 mph - N/A   Overcast
2:20 AM 14.0 °F 2.9 °F 3.2 °F 62% 29.89 in 6.2 mi WSW 8.1 mph - N/A   Overcast
2:50 AM 14.0 °F 3.9 °F 3.2 °F 62% 29.89 in 6.2 mi SW 6.9 mph - N/A   Overcast
3:20 AM 14.0 °F 3.9 °F 3.2 °F 62% 29.86 in 6.2 mi SW 6.9 mph - N/A   Overcast
3:50 AM 14.0 °F 2.9 °F 5.0 °F 67% 29.86 in 6.2 mi SSW 8.1 mph - N/A   Overcast
4:20 AM 17.6 °F 5.7 °F 8.6 °F 68% 29.86 in 6.2 mi WSW 10.4 mph - N/A   Overcast
4:50 AM 17.6 °F 5.7 °F 10.4 °F 73% 29.83 in 6.2 mi WSW 10.4 mph - N/A   Scattered Clouds
5:20 AM 19.4 °F 6.6 °F 8.6 °F 63% 29.83 in 6.2 mi SW 12.7 mph - N/A   Mostly Cloudy
5:50 AM 21.2 °F 10.9 °F 12.2 °F 68% 29.83 in - SW 9.2 mph - N/A   Clear
6:20 AM 21.2 °F 12.6 °F 14.0 °F 74% 29.80 in - West 6.9 mph - N/A   Clear
6:50 AM 26.6 °F 16.8 °F 19.4 °F 74% 29.80 in 6.2 mi NW 10.4 mph - N/A   Mostly Cloudy
7:20 AM 28.4 °F 17.5 °F 19.4 °F 69% 29.80 in 6.2 mi WNW 13.8 mph - N/A   Mostly Cloudy
7:50 AM 30.2 °F 19.8 °F 19.4 °F 64% 29.77 in 6.2 mi West 13.8 mph - N/A   Mostly Cloudy
8:20 AM 30.2 °F 18.5 °F 19.4 °F 64% 29.77 in 6.2 mi SW 17.3 mph - N/A   Partly Cloudy
8:50 AM 30.2 °F 21.9 °F 19.4 °F 64% 29.74 in 6.2 mi WSW 9.2 mph - N/A   Partly Cloudy
9:20 AM 30.2 °F 19.3 °F 19.4 °F 64% 29.74 in - West 15.0 mph - N/A   Clear
9:50 AM 28.4 °F 17.0 °F 19.4 °F 69% 29.74 in - West 15.0 mph - N/A   Clear
10:20 AM 28.4 °F 16.2 °F 19.4 °F 69% 29.74 in 6.2 mi WSW 17.3 mph - N/A   Scattered Clouds
10:50 AM 26.6 °F 14.3 °F 19.4 °F 74% 29.74 in 6.2 mi SW 16.1 mph - N/A   Scattered Clouds
11:20 AM 30.2 °F 21.3 °F 21.2 °F 69% 29.74 in 6.2 mi West 10.4 mph - N/A   Mostly Cloudy
11:50 AM 30.2 °F 20.2 °F 23.0 °F 75% 29.74 in 6.2 mi West 12.7 mph - N/A   Scattered Clouds
12:20 PM 30.2 °F 18.9 °F 23.0 °F 75% 29.71 in 6.2 mi West 16.1 mph - N/A   Partly Cloudy
12:50 PM 30.2 °F 17.8 °F 23.0 °F 75% 29.71 in 6.2 mi West 19.6 mph - N/A   Partly Cloudy
1:20 PM 30.2 °F 19.3 °F 21.2 °F 69% 29.71 in 6.2 mi West 15.0 mph - N/A   Scattered Clouds
1:50 PM 28.4 °F 16.6 °F 21.2 °F 74% 29.68 in 6.2 mi West 16.1 mph - N/A Snow Light Snow
2:20 PM 28.4 °F 16.6 °F 23.0 °F 80% 29.68 in 6.2 mi WSW 16.1 mph - N/A Snow Light Snow
2:50 PM 28.4 °F 17.0 °F 23.0 °F 80% 29.68 in 6.2 mi SW 15.0 mph - N/A   Mostly Cloudy
3:20 PM 32.0 °F 21.6 °F 24.8 °F 75% 29.68 in 6.2 mi NW 15.0 mph - N/A   Mostly Cloudy
3:50 PM 32.0 °F 20.8 °F 24.8 °F 75% 29.68 in 6.2 mi NW 17.3 mph - N/A   Mostly Cloudy
4:20 PM 30.2 °F 19.8 °F 24.8 °F 80% 29.65 in 6.2 mi NW 13.8 mph - N/A   Mostly Cloudy
4:50 PM 30.2 °F 19.8 °F 23.0 °F 75% 29.65 in 6.2 mi NW 13.8 mph - N/A   Mostly Cloudy
5:20 PM 30.2 °F 19.3 °F 23.0 °F 75% 29.65 in 6.2 mi NW 15.0 mph - N/A   Scattered Clouds
5:50 PM 30.2 °F 19.8 °F 23.0 °F 75% 29.62 in - WNW 13.8 mph - N/A   Clear
6:20 PM 30.2 °F 20.8 °F 21.2 °F 69% 29.62 in - NW 11.5 mph - N/A   Clear
6:50 PM 30.2 °F 19.8 °F 21.2 °F 69% 29.62 in - WNW 13.8 mph - N/A   Clear
7:20 PM 30.2 °F 18.1 °F 21.2 °F 69% 29.62 in - WNW 18.4 mph - N/A   Clear
7:50 PM 30.2 °F 18.1 °F 23.0 °F 75% 29.59 in - NW 18.4 mph - N/A   Clear
8:20 PM 30.2 °F 17.1 °F 23.0 °F 75% 29.59 in - NW 21.9 mph 34.5 mph N/A   Clear
8:50 PM 30.2 °F 18.5 °F 23.0 °F 75% 29.62 in - NW 17.3 mph - N/A   Clear
9:20 PM 30.2 °F 17.8 °F 23.0 °F 75% 29.59 in - NW 19.6 mph 31.1 mph N/A   Clear
9:50 PM 30.2 °F 16.8 °F 23.0 °F 75% 29.62 in - NW 23.0 mph 34.5 mph N/A   Clear
10:20 PM 30.2 °F 20.2 °F 23.0 °F 75% 29.62 in - WNW 12.7 mph - N/A   Clear
10:50 PM 28.4 °F 17.5 °F 23.0 °F 80% 29.62 in 6.2 mi NW 13.8 mph - N/A   Scattered Clouds
11:20 PM 30.2 °F 17.8 °F 24.8 °F 80% 29.59 in 6.2 mi NW 19.6 mph - N/A   Mostly Cloudy
11:50 PM 30.2 °F 18.9 °F 24.8 °F 80% 29.62 in 6.2 mi NNW 16.1 mph - N/A   Overcast